[[{"header":{"parameterUnit":"m.s-1","parameterCategory":1,"la1":30.2991,"la2":30.254,"lo1":-89.0895,"lo2":-89.0444,"dy":0.0017,"dx":0.0017,"nx":28,"ny":28,"refTime":"2025-03-01T09:00:00:Z","depth":0,"parameterNumber":2,"parameterNumberName":"U-component_of_WINDS"},"data":[0,0,0,0,0,0,0,0,0,0,0,0,0,0,0,0,0,0,0,0,0,0,0,0,0,0,0,0,0,0,0,0,0,0,0,0,0,0,0,0,0,0,0,0,0,0,0,0,0,0,0,0,0,0,0,0,0,0,-0.1073,-0.1073,0,-0.1105,-0.1106,-0.1106,-0.1091,-0.109,-0.1089,-0.1088,-0.1125,-0.1126,-0.1128,0,0,0,0,0,0,0,0,0,0,0,0,0,-0.1001,-0.1002,-0.1073,-0.1073,-0.1074,-0.1105,-0.1106,-0.1106,-0.1091,-0.109,-0.1089,-0.1088,-0.1124,-0.1126,-0.1128,0,0,0,0,0,0,0,0,0,0,0,0,0,-0.1033,-0.1003,-0.1073,-0.107,-0.107,-0.1105,-0.1106,-0.1106,-0.1091,-0.109,-0.1089,-0.1088,-0.1123,-0.1126,-0.1129,-0.117,0,0,-0.1137,-0.1138,0,0,0,0,0,0,0,0,-0.1031,-0.1035,-0.107,-0.107,-0.107,-0.1093,-0.1094,-0.1128,-0.1092,-0.1083,-0.1088,-0.1087,-0.1115,-0.1118,-0.1127,-0.1171,-0.1173,-0.1137,-0.1138,-0.1139,-0.114,0,0,0,0,0,0,0,-0.1029,-0.1034,-0.1086,-0.107,-0.1071,-0.1068,-0.1071,-0.11,-0.1106,-0.1084,-0.1083,-0.1087,-0.1115,-0.1125,-0.1128,-0.1173,-0.1137,-0.1139,-0.1141,-0.1142,-0.1254,-0.1255,0,0,0,0,0,0,-0.1026,-0.1032,-0.1085,-0.1087,-0.1047,-0.107,-0.1074,-0.1087,-0.1106,-0.1107,-0.1088,-0.1086,-0.1121,-0.1125,-0.1129,-0.118,-0.1139,-0.1142,-0.1143,-0.1253,-0.1254,-0.1256,0,0,0,0,0,0,-0.1025,-0.1031,-0.1083,-0.1059,-0.1066,-0.1073,-0.1088,-0.1088,-0.1098,-0.1108,-0.111,-0.1096,-0.112,-0.1126,-0.116,-0.1181,-0.1143,-0.1145,-0.1251,-0.1253,-0.1255,-0.128,0,0,0,0,0,0,-0.1023,-0.1031,-0.1045,-0.106,-0.1067,-0.1112,-0.1089,-0.109,-0.1102,-0.11,-0.1117,-0.1119,-0.112,-0.1156,-0.1162,-0.1183,-0.1147,-0.1249,-0.1252,-0.1254,-0.1277,-0.1282,-0.1287,0,0,0,0,0,-0.102,-0.1051,-0.1046,-0.1053,-0.1085,-0.1114,-0.1118,-0.1118,-0.1104,-0.1119,-0.1126,-0.1118,-0.1177,-0.116,-0.1167,-0.1189,-0.1248,-0.1251,-0.1254,-0.1275,-0.1281,-0.1287,0,0,0,0,0,0,-0.104,-0.1053,-0.1048,-0.1084,-0.1098,-0.1111,-0.113,-0.1124,-0.1143,-0.114,-0.114,-0.1144,-0.118,-0.1188,-0.1168,-0.123,-0.121,-0.1215,-0.1224,-0.123,-0.1235,-0.1233,-0.115,0,0,0,0,0,-0.1049,-0.107,-0.108,-0.1111,-0.1118,-0.1123,-0.1136,-0.1134,-0.1149,-0.1155,-0.1164,-0.1179,-0.1201,-0.1216,-0.1237,-0.1278,-0.1282,-0.1297,-0.1302,-0.1306,-0.131,-0.1334,-0.1341,-0.1266,-0.1266,-0.1266,0,0,-0.1067,-0.1077,-0.109,-0.1116,-0.1126,-0.1149,-0.1128,-0.1153,-0.117,-0.1159,-0.1191,-0.1199,-0.1216,-0.1254,-0.1271,-0.1262,-0.1332,-0.131,-0.1313,-0.1315,-0.1338,-0.1345,-0.1351,-0.1268,-0.1268,-0.1268,0,0,-0.1112,-0.1121,-0.1148,-0.1159,-0.1175,-0.1178,-0.1185,-0.1199,-0.1203,-0.1236,-0.1228,-0.1249,-0.1287,-0.1299,-0.1311,-0.1361,-0.1355,-0.1368,-0.1394,-0.1417,-0.1423,-0.1428,-0.1447,-0.1454,-0.1372,-0.1372,-0.1372,0,-0.1133,-0.1166,-0.1164,-0.1189,-0.1201,-0.1191,-0.122,-0.123,-0.1253,-0.1262,-0.125,-0.1298,-0.1309,-0.135,-0.1363,-0.1372,-0.138,-0.1366,-0.1422,-0.1427,-0.1432,-0.145,-0.1458,-0.1374,-0.1374,-0.1374,-0.1373,0,-0.1192,-0.1214,-0.1235,-0.1256,-0.127,-0.1297,-0.13,-0.1315,-0.1313,-0.1317,-0.1352,-0.1364,-0.1388,-0.1397,-0.1395,-0.1439,-0.1432,-0.1422,-0.1402,-0.1441,-0.1458,-0.1465,-0.1376,-0.1376,-0.1375,-0.1375,0,0,-0.125,-0.127,-0.1277,-0.1287,-0.1304,-0.1322,-0.1349,-0.1371,-0.1385,-0.1401,-0.1424,-0.1456,-0.1447,-0.146,-0.1459,-0.1479,-0.152,-0.1466,-0.1467,-0.1477,-0.157,-0.1579,-0.1587,-0.1515,-0.1516,-0.1517,-0.1569,0,-0.1297,-0.1343,-0.1342,-0.1386,-0.1408,-0.1399,-0.1422,-0.1436,-0.1441,-0.1462,-0.1468,-0.1491,-0.1476,-0.1484,-0.1503,-0.1511,-0.1539,-0.1507,-0.1538,-0.154,-0.1535,-0.1595,-0.1604,-0.1652,-0.1575,-0.1577,-0.1577,0,-0.1358,-0.1375,-0.1421,-0.1435,-0.1444,-0.1465,-0.1486,-0.1505,-0.1521,-0.1523,-0.1538,-0.1535,-0.1563,-0.1542,-0.1582,-0.1561,-0.1574,-0.158,-0.1581,-0.1585,-0.1561,-0.1602,-0.1667,-0.1675,-0.1588,-0.1587,-0.1586,0,-0.1398,-0.1432,-0.1464,-0.1473,-0.149,-0.1505,-0.1513,-0.1528,-0.1541,-0.156,-0.1569,-0.1591,-0.1603,-0.1621,-0.1624,-0.1608,-0.1665,-0.1643,-0.1669,-0.1669,-0.1682,-0.1681,-0.1752,-0.1689,-0.1688,-0.1688,-0.1688,0,-0.1451,-0.1479,-0.1482,-0.1502,-0.1534,-0.1533,-0.1565,-0.1572,-0.1585,-0.1607,-0.1601,-0.1621,-0.1623,-0.1645,-0.1648,-0.1682,-0.1687,-0.1691,-0.1691,-0.1692,-0.1692,-0.1701,-0.1698,-0.169,-0.169,-0.1689,-0.1689,0,-0.1501,-0.1504,-0.1538,-0.1552,-0.1556,-0.1579,-0.1591,-0.161,-0.1615,-0.1643,-0.1649,-0.1657,-0.1682,-0.1687,-0.1717,-0.1718,-0.1759,-0.1756,-0.1754,-0.1754,-0.1779,-0.1777,-0.1859,-0.187,-0.1799,-0.1799,-0.18,0,-0.1535,-0.1557,-0.1572,-0.1586,-0.1595,-0.1617,-0.1631,-0.1631,-0.1646,-0.1666,-0.1683,-0.1708,-0.1728,-0.1769,-0.1778,-0.1801,-0.1799,-0.1826,-0.1803,-0.1803,-0.1801,-0.18,-0.1803,-0.1831,-0.1832,-0.1832,-0.1833,0,-0.1595,-0.1596,-0.1616,-0.1636,-0.1653,-0.1669,-0.1685,-0.1697,-0.1699,-0.1717,-0.1742,-0.1758,-0.1788,-0.1813,-0.1836,-0.1846,-0.1841,-0.184,-0.1847,-0.1849,-0.1847,-0.1849,-0.1767,-0.1838,-0.1838,-0.1837,-0.1837,-0.1837,-0.1639,-0.1658,-0.1673,-0.1695,-0.1707,-0.1722,-0.1741,-0.1748,-0.1769,-0.1793,-0.1792,-0.1821,-0.1837,-0.1867,-0.1878,-0.1901,-0.1893,-0.1903,-0.1906,-0.1909,-0.1912,-0.1842,-0.1905,-0.1905,-0.1905,-0.1905,-0.1905,0,-0.17,-0.1709,-0.173,-0.1751,-0.177,-0.1762,-0.1779,-0.1795,-0.1819,-0.1834,-0.1854,-0.1884,-0.1908,-0.1919,-0.1943,-0.196,-0.1958,-0.1966,-0.1966,-0.1968,-0.1917,-0.1909,-0.1967,-0.1967,-0.1967,-0.1967,-0.1967,-0.1967,-0.1734,-0.1767,-0.1769,-0.1808,-0.1816,-0.1843,-0.1854,-0.1868,-0.188,-0.1914,-0.1934,-0.194,-0.1954,-0.1979,-0.2002,-0.2004,-0.2014,-0.2024,-0.2025,-0.1978,-0.1972,-0.1966,-0.1958,-0.2026,-0.2026,-0.2074,-0.2075,-0.2075]},{"header":{"parameterUnit":"m.s-1","parameterCategory":1,"la1":30.2991,"la2":30.254,"lo1":-89.0895,"lo2":-89.0444,"dy":0.0017,"dx":0.0017,"nx":28,"ny":28,"refTime":"2025-03-01T09:00:00:Z","depth":0,"parameterNumber":3,"parameterNumberName":"V-component_of_WINDS"},"data":[0,0,0,0,0,0,0,0,0,0,0,0,0,0,0,0,0,0,0,0,0,0,0,0,0,0,0,0,0,0,0,0,0,0,0,0,0,0,0,0,0,0,0,0,0,0,0,0,0,0,0,0,0,0,0,0,0,0,-3.6818,-3.6818,0,-3.6867,-3.6868,-3.6869,-3.6841,-3.684,-3.6839,-3.6837,-3.689,-3.6892,-3.6895,0,0,0,0,0,0,0,0,0,0,0,0,0,-3.6702,-3.6704,-3.6818,-3.6818,-3.6819,-3.6867,-3.6868,-3.6869,-3.6842,-3.684,-3.6838,-3.6837,-3.6889,-3.6892,-3.6895,0,0,0,0,0,0,0,0,0,0,0,0,0,-3.6752,-3.6705,-3.6818,-3.6811,-3.6811,-3.6867,-3.6868,-3.6869,-3.6842,-3.684,-3.6838,-3.6836,-3.6888,-3.6892,-3.6896,-3.6961,0,0,-3.6908,-3.6909,0,0,0,0,0,0,0,0,-3.6749,-3.6756,-3.6812,-3.6812,-3.6812,-3.6846,-3.6846,-3.69,-3.6843,-3.683,-3.6837,-3.6835,-3.6877,-3.6882,-3.6896,-3.6964,-3.6966,-3.6908,-3.6911,-3.6912,-3.6913,0,0,0,0,0,0,0,-3.6746,-3.6754,-3.6837,-3.6812,-3.6813,-3.6807,-3.6812,-3.6856,-3.6865,-3.6831,-3.6829,-3.6836,-3.6877,-3.6892,-3.6897,-3.6967,-3.6908,-3.6912,-3.6914,-3.6916,-3.7093,-3.7095,0,0,0,0,0,0,-3.6742,-3.6751,-3.6836,-3.6839,-3.6775,-3.681,-3.6816,-3.6837,-3.6864,-3.6866,-3.6837,-3.6834,-3.6886,-3.6892,-3.6898,-3.6978,-3.6912,-3.6916,-3.6918,-3.7091,-3.7093,-3.7096,0,0,0,0,0,0,-3.674,-3.675,-3.6834,-3.6795,-3.6805,-3.6815,-3.6839,-3.6839,-3.6854,-3.6868,-3.687,-3.6851,-3.6885,-3.6893,-3.6946,-3.698,-3.6918,-3.6921,-3.7088,-3.7092,-3.7095,-3.7138,0,0,0,0,0,0,-3.6737,-3.6749,-3.6774,-3.6795,-3.6807,-3.688,-3.6841,-3.6842,-3.6861,-3.6857,-3.6882,-3.6884,-3.6884,-3.694,-3.695,-3.6984,-3.6925,-3.7085,-3.709,-3.7094,-3.7133,-3.7142,-3.715,0,0,0,0,0,-3.6733,-3.6784,-3.6775,-3.6785,-3.6838,-3.6882,-3.6889,-3.6887,-3.6864,-3.6889,-3.6898,-3.6883,-3.6974,-3.6946,-3.6957,-3.6992,-3.7083,-3.7088,-3.7093,-3.713,-3.7141,-3.715,0,0,0,0,0,0,-3.6766,-3.6786,-3.6777,-3.6836,-3.6858,-3.6877,-3.6909,-3.6898,-3.6927,-3.6922,-3.6919,-3.6925,-3.6981,-3.6992,-3.696,-3.7058,-3.7025,-3.7033,-3.7049,-3.7059,-3.7068,-3.7064,-3.6928,0,0,0,0,0,-3.678,-3.6814,-3.683,-3.6881,-3.6892,-3.6899,-3.6918,-3.6915,-3.6937,-3.6946,-3.6959,-3.6982,-3.7016,-3.7038,-3.707,-3.7135,-3.7141,-3.7165,-3.7173,-3.718,-3.7187,-3.7223,-3.7235,-3.7113,-3.7113,-3.7113,0,0,-3.681,-3.6825,-3.6847,-3.6888,-3.6905,-3.6941,-3.6907,-3.6946,-3.6973,-3.6952,-3.7004,-3.7014,-3.7039,-3.7099,-3.7126,-3.711,-3.7221,-3.7186,-3.7191,-3.7195,-3.723,-3.7242,-3.7252,-3.7117,-3.7116,-3.7115,0,0,-3.6883,-3.6897,-3.6942,-3.6959,-3.6984,-3.6989,-3.6999,-3.7021,-3.7027,-3.7079,-3.7065,-3.7097,-3.7155,-3.7174,-3.7191,-3.7273,-3.7261,-3.7283,-3.7327,-3.7363,-3.7372,-3.7381,-3.7412,-3.7423,-3.729,-3.729,-3.729,0,-3.6917,-3.697,-3.6967,-3.7008,-3.7027,-3.701,-3.7056,-3.7073,-3.7107,-3.7121,-3.7103,-3.7176,-3.7191,-3.7256,-3.7277,-3.7291,-3.7304,-3.7281,-3.7371,-3.738,-3.7388,-3.7417,-3.7428,-3.7293,-3.7293,-3.7292,-3.7292,0,-3.7012,-3.7049,-3.7083,-3.7117,-3.714,-3.7183,-3.7187,-3.7211,-3.7206,-3.7213,-3.7266,-3.7284,-3.732,-3.7335,-3.7331,-3.74,-3.739,-3.7371,-3.7338,-3.7402,-3.743,-3.7441,-3.7297,-3.7296,-3.7295,-3.7294,0,0,-3.7107,-3.7139,-3.7152,-3.7168,-3.7194,-3.7224,-3.7267,-3.7302,-3.7323,-3.7348,-3.7385,-3.7435,-3.7418,-3.7438,-3.7435,-3.7467,-3.7533,-3.7445,-3.7445,-3.7462,-3.7612,-3.7627,-3.764,-3.7524,-3.7526,-3.7528,-3.7611,0,-3.7183,-3.7258,-3.7257,-3.7327,-3.7363,-3.7348,-3.7385,-3.7407,-3.7414,-3.7446,-3.7454,-3.7491,-3.7465,-3.7477,-3.7508,-3.7518,-3.7563,-3.7512,-3.756,-3.7562,-3.7556,-3.7654,-3.767,-3.7747,-3.7621,-3.7623,-3.7625,0,-3.7282,-3.731,-3.7384,-3.7407,-3.7422,-3.7456,-3.7489,-3.7519,-3.7543,-3.7547,-3.7569,-3.7562,-3.7607,-3.7572,-3.7635,-3.7601,-3.762,-3.7629,-3.7632,-3.7637,-3.7598,-3.7664,-3.7771,-3.7783,-3.7641,-3.764,-3.7639,0,-3.7346,-3.7402,-3.7454,-3.7468,-3.7496,-3.752,-3.7533,-3.7555,-3.7577,-3.7606,-3.762,-3.7654,-3.7673,-3.77,-3.7703,-3.7676,-3.7767,-3.7731,-3.7772,-3.7772,-3.7793,-3.7791,-3.7906,-3.7803,-3.7803,-3.7803,-3.7802,0,-3.7432,-3.7478,-3.7483,-3.7516,-3.7567,-3.7566,-3.7617,-3.7628,-3.7648,-3.7683,-3.7671,-3.7704,-3.7705,-3.774,-3.7742,-3.7795,-3.7803,-3.7808,-3.7809,-3.781,-3.781,-3.7824,-3.7819,-3.7806,-3.7805,-3.7804,-3.7804,0,-3.7512,-3.7518,-3.7573,-3.7596,-3.7602,-3.764,-3.7659,-3.769,-3.7697,-3.7741,-3.7751,-3.7762,-3.7802,-3.7807,-3.7853,-3.7855,-3.7919,-3.7913,-3.7911,-3.7911,-3.7952,-3.7949,-3.8081,-3.8099,-3.7982,-3.7984,-3.7984,0,-3.7567,-3.7602,-3.7629,-3.7651,-3.7665,-3.7701,-3.7724,-3.7724,-3.7748,-3.7779,-3.7807,-3.7845,-3.7876,-3.794,-3.7953,-3.7989,-3.7984,-3.8028,-3.799,-3.7991,-3.7987,-3.7985,-3.799,-3.8036,-3.8037,-3.8038,-3.8039,0,-3.7665,-3.7666,-3.7698,-3.7732,-3.7759,-3.7786,-3.7811,-3.783,-3.7834,-3.7861,-3.7902,-3.7926,-3.7974,-3.8013,-3.8048,-3.8062,-3.8052,-3.8051,-3.8063,-3.8065,-3.8063,-3.8067,-3.7933,-3.8048,-3.8047,-3.8047,-3.8046,-3.8046,-3.7735,-3.7766,-3.779,-3.7827,-3.7846,-3.787,-3.7901,-3.7912,-3.7946,-3.7985,-3.7983,-3.8028,-3.8053,-3.8099,-3.8116,-3.8152,-3.8138,-3.8154,-3.8159,-3.8163,-3.8168,-3.8057,-3.8158,-3.8158,-3.8158,-3.8158,-3.8157,0,-3.7833,-3.7848,-3.7882,-3.7918,-3.7948,-3.7935,-3.7962,-3.7988,-3.8028,-3.8052,-3.8083,-3.813,-3.8168,-3.8184,-3.8222,-3.8248,-3.8244,-3.8258,-3.8256,-3.826,-3.8178,-3.8165,-3.826,-3.826,-3.826,-3.826,-3.826,-3.826,-3.7888,-3.7941,-3.7945,-3.8008,-3.8023,-3.8067,-3.8084,-3.8107,-3.8126,-3.8179,-3.8211,-3.8221,-3.8242,-3.8281,-3.8316,-3.832,-3.8335,-3.8351,-3.8353,-3.8276,-3.8266,-3.8256,-3.8244,-3.8354,-3.8354,-3.8433,-3.8434,-3.8434]}]]